Year,Month,Day,Hour,Minute,Value (Times are PST for insolation in W/m^2)
2016,03,26,00,00,0.00
2016,03,26,00,01,0.00
2016,03,26,00,02,0.00
2016,03,26,00,03,0.00
2016,03,26,00,04,0.00
2016,03,26,00,05,0.00
2016,03,26,00,06,0.00
2016,03,26,00,07,0.00
2016,03,26,00,08,0.00
2016,03,26,00,09,0.00
2016,03,26,00,10,0.00
2016,03,26,00,11,0.00
2016,03,26,00,12,0.00
2016,03,26,00,13,0.00
2016,03,26,00,14,0.00
2016,03,26,00,15,0.00
2016,03,26,00,16,0.00
2016,03,26,00,17,0.00
2016,03,26,00,18,0.00
2016,03,26,00,19,0.00
2016,03,26,00,20,0.00
2016,03,26,00,21,0.00
2016,03,26,00,22,0.00
2016,03,26,00,23,0.00
2016,03,26,00,24,0.00
2016,03,26,00,25,0.00
2016,03,26,00,26,0.00
2016,03,26,00,27,0.00
2016,03,26,00,28,0.00
2016,03,26,00,29,0.00
2016,03,26,00,30,0.00
2016,03,26,00,31,0.00
2016,03,26,00,32,0.00
2016,03,26,00,33,0.00
2016,03,26,00,34,0.00
2016,03,26,00,35,0.00
2016,03,26,00,36,0.00
2016,03,26,00,37,0.00
2016,03,26,00,38,0.00
2016,03,26,00,39,0.00
2016,03,26,00,40,0.00
2016,03,26,00,41,0.00
2016,03,26,00,42,0.00
2016,03,26,00,43,0.00
2016,03,26,00,44,0.00
2016,03,26,00,45,0.00
2016,03,26,00,46,0.00
2016,03,26,00,47,0.00
2016,03,26,00,48,0.00
2016,03,26,00,49,0.00
2016,03,26,00,50,0.00
2016,03,26,00,51,0.00
2016,03,26,00,52,0.00
2016,03,26,00,53,0.00
2016,03,26,00,54,0.00
2016,03,26,00,55,0.00
2016,03,26,00,56,0.00
2016,03,26,00,57,0.00
2016,03,26,00,58,0.00
2016,03,26,00,59,0.00
2016,03,26,01,00,0.00
2016,03,26,01,01,0.00
2016,03,26,01,02,0.00
2016,03,26,01,03,0.00
2016,03,26,01,04,0.00
2016,03,26,01,05,0.00
2016,03,26,01,06,0.00
2016,03,26,01,07,0.00
2016,03,26,01,08,0.00
2016,03,26,01,09,0.00
2016,03,26,01,10,0.00
2016,03,26,01,11,0.00
2016,03,26,01,12,0.00
2016,03,26,01,13,0.00
2016,03,26,01,14,0.00
2016,03,26,01,15,0.00
2016,03,26,01,16,0.00
2016,03,26,01,17,0.00
2016,03,26,01,18,0.00
2016,03,26,01,19,0.00
2016,03,26,01,20,0.00
2016,03,26,01,21,0.00
2016,03,26,01,22,0.00
2016,03,26,01,23,0.00
2016,03,26,01,24,0.00
2016,03,26,01,25,0.00
2016,03,26,01,26,0.00
2016,03,26,01,27,0.00
2016,03,26,01,28,0.00
2016,03,26,01,29,0.00
2016,03,26,01,30,0.00
2016,03,26,01,31,0.00
2016,03,26,01,32,0.00
2016,03,26,01,33,0.00
2016,03,26,01,34,0.00
2016,03,26,01,35,0.00
2016,03,26,01,36,0.00
2016,03,26,01,37,0.00
2016,03,26,01,38,0.00
2016,03,26,01,39,0.00
2016,03,26,01,40,0.00
2016,03,26,01,41,0.00
2016,03,26,01,42,0.00
2016,03,26,01,43,0.00
2016,03,26,01,44,0.00
2016,03,26,01,45,0.00
2016,03,26,01,46,0.00
2016,03,26,01,47,0.00
2016,03,26,01,48,0.00
2016,03,26,01,49,0.00
2016,03,26,01,50,0.00
2016,03,26,01,51,0.00
2016,03,26,01,52,0.00
2016,03,26,01,53,0.00
2016,03,26,01,54,0.00
2016,03,26,01,55,0.00
2016,03,26,01,56,0.00
2016,03,26,01,57,0.00
2016,03,26,01,58,0.00
2016,03,26,01,59,0.00
2016,03,26,02,00,0.00
2016,03,26,02,01,0.00
2016,03,26,02,02,0.00
2016,03,26,02,03,0.00
2016,03,26,02,04,0.00
2016,03,26,02,05,0.00
2016,03,26,02,06,0.00
2016,03,26,02,07,0.00
2016,03,26,02,08,0.00
2016,03,26,02,09,0.00
2016,03,26,02,10,0.00
2016,03,26,02,11,0.00
2016,03,26,02,12,0.00
2016,03,26,02,13,0.00
2016,03,26,02,14,0.00
2016,03,26,02,15,0.00
2016,03,26,02,16,0.00
2016,03,26,02,17,0.00
2016,03,26,02,18,0.00
2016,03,26,02,19,0.00
2016,03,26,02,20,0.00
2016,03,26,02,21,0.00
2016,03,26,02,22,0.00
2016,03,26,02,23,0.00
2016,03,26,02,24,0.00
2016,03,26,02,25,0.00
2016,03,26,02,26,0.00
2016,03,26,02,27,0.00
2016,03,26,02,28,0.00
2016,03,26,02,29,0.00
2016,03,26,02,30,0.00
2016,03,26,02,31,0.00
2016,03,26,02,32,0.00
2016,03,26,02,33,0.00
2016,03,26,02,34,0.00
2016,03,26,02,35,0.00
2016,03,26,02,36,0.00
2016,03,26,02,37,0.00
2016,03,26,02,38,0.00
2016,03,26,02,39,0.00
2016,03,26,02,40,0.00
2016,03,26,02,41,0.00
2016,03,26,02,42,0.00
2016,03,26,02,43,0.00
2016,03,26,02,44,0.00
2016,03,26,02,45,0.00
2016,03,26,02,46,0.00
2016,03,26,02,47,0.00
2016,03,26,02,48,0.00
2016,03,26,02,49,0.00
2016,03,26,02,50,0.00
2016,03,26,02,51,0.00
2016,03,26,02,52,0.00
2016,03,26,02,53,0.00
2016,03,26,02,54,0.00
2016,03,26,02,55,0.00
2016,03,26,02,56,0.00
2016,03,26,02,57,0.00
2016,03,26,02,58,0.00
2016,03,26,02,59,0.00
2016,03,26,03,00,0.00
2016,03,26,03,01,0.00
2016,03,26,03,02,0.00
2016,03,26,03,03,0.00
2016,03,26,03,04,0.00
2016,03,26,03,05,0.00
2016,03,26,03,06,0.00
2016,03,26,03,07,0.00
2016,03,26,03,08,0.00
2016,03,26,03,09,0.00
2016,03,26,03,10,0.00
2016,03,26,03,11,0.00
2016,03,26,03,12,0.00
2016,03,26,03,13,0.00
2016,03,26,03,14,0.00
2016,03,26,03,15,0.00
2016,03,26,03,16,0.00
2016,03,26,03,17,0.00
2016,03,26,03,18,0.00
2016,03,26,03,19,0.00
2016,03,26,03,20,0.00
2016,03,26,03,21,0.00
2016,03,26,03,22,0.00
2016,03,26,03,23,0.00
2016,03,26,03,24,0.00
2016,03,26,03,25,0.00
2016,03,26,03,26,0.00
2016,03,26,03,27,0.00
2016,03,26,03,28,0.00
2016,03,26,03,29,0.00
2016,03,26,03,30,0.00
2016,03,26,03,31,0.00
2016,03,26,03,32,0.00
2016,03,26,03,33,0.00
2016,03,26,03,34,0.00
2016,03,26,03,35,0.00
2016,03,26,03,36,0.00
2016,03,26,03,37,0.00
2016,03,26,03,38,0.00
2016,03,26,03,39,0.00
2016,03,26,03,40,0.00
2016,03,26,03,41,0.00
2016,03,26,03,42,0.00
2016,03,26,03,43,0.00
2016,03,26,03,44,0.00
2016,03,26,03,45,0.00
2016,03,26,03,46,0.00
2016,03,26,03,47,0.00
2016,03,26,03,48,0.00
2016,03,26,03,49,0.00
2016,03,26,03,50,0.00
2016,03,26,03,51,0.00
2016,03,26,03,52,0.00
2016,03,26,03,53,0.00
2016,03,26,03,54,0.00
2016,03,26,03,55,0.00
2016,03,26,03,56,0.00
2016,03,26,03,57,0.00
2016,03,26,03,58,0.00
2016,03,26,03,59,0.00
2016,03,26,04,00,0.00
2016,03,26,04,01,0.00
2016,03,26,04,02,0.00
2016,03,26,04,03,0.00
2016,03,26,04,04,0.00
2016,03,26,04,05,0.00
2016,03,26,04,06,0.00
2016,03,26,04,07,0.00
2016,03,26,04,08,0.00
2016,03,26,04,09,0.00
2016,03,26,04,10,0.00
2016,03,26,04,11,0.00
2016,03,26,04,12,0.00
2016,03,26,04,13,0.00
2016,03,26,04,14,0.00
2016,03,26,04,15,0.00
2016,03,26,04,16,0.00
2016,03,26,04,17,0.00
2016,03,26,04,18,0.00
2016,03,26,04,19,0.00
2016,03,26,04,20,0.00
2016,03,26,04,21,0.00
2016,03,26,04,22,0.00
2016,03,26,04,23,0.00
2016,03,26,04,24,0.00
2016,03,26,04,25,0.00
2016,03,26,04,26,0.00
2016,03,26,04,27,0.00
2016,03,26,04,28,0.00
2016,03,26,04,29,0.00
2016,03,26,04,30,0.00
2016,03,26,04,31,0.00
2016,03,26,04,32,0.00
2016,03,26,04,33,0.00
2016,03,26,04,34,0.00
2016,03,26,04,35,0.00
2016,03,26,04,36,0.00
2016,03,26,04,37,0.00
2016,03,26,04,38,0.00
2016,03,26,04,39,0.00
2016,03,26,04,40,0.00
2016,03,26,04,41,0.00
2016,03,26,04,42,0.00
2016,03,26,04,43,0.00
2016,03,26,04,44,0.00
2016,03,26,04,45,0.00
2016,03,26,04,46,0.00
2016,03,26,04,47,0.00
2016,03,26,04,48,0.00
2016,03,26,04,49,0.00
2016,03,26,04,50,0.00
2016,03,26,04,51,0.00
2016,03,26,04,52,0.00
2016,03,26,04,53,0.00
2016,03,26,04,54,0.00
2016,03,26,04,55,0.00
2016,03,26,04,56,0.00
2016,03,26,04,57,0.00
2016,03,26,04,58,0.00
2016,03,26,04,59,0.00
2016,03,26,05,00,0.00
2016,03,26,05,01,0.00
2016,03,26,05,02,0.00
2016,03,26,05,03,0.00
2016,03,26,05,04,0.00
2016,03,26,05,05,0.00
2016,03,26,05,06,0.00
2016,03,26,05,07,0.00
2016,03,26,05,08,0.00
2016,03,26,05,09,0.00
2016,03,26,05,10,0.00
2016,03,26,05,11,0.00
2016,03,26,05,12,0.00
2016,03,26,05,13,0.00
2016,03,26,05,14,0.00
2016,03,26,05,15,0.00
2016,03,26,05,16,0.00
2016,03,26,05,17,0.00
2016,03,26,05,18,0.00
2016,03,26,05,19,0.00
2016,03,26,05,20,0.00
2016,03,26,05,21,0.00
2016,03,26,05,22,0.00
2016,03,26,05,23,0.00
2016,03,26,05,24,0.00
2016,03,26,05,25,0.00
2016,03,26,05,26,0.00
2016,03,26,05,27,0.00
2016,03,26,05,28,0.00
2016,03,26,05,29,0.00
2016,03,26,05,30,0.00
2016,03,26,05,31,0.00
2016,03,26,05,32,0.00
2016,03,26,05,33,0.00
2016,03,26,05,34,0.00
2016,03,26,05,35,0.00
2016,03,26,05,36,0.00
2016,03,26,05,37,0.00
2016,03,26,05,38,0.00
2016,03,26,05,39,0.00
2016,03,26,05,40,0.00
2016,03,26,05,41,0.00
2016,03,26,05,42,0.00
2016,03,26,05,43,0.00
2016,03,26,05,44,0.00
2016,03,26,05,45,0.00
2016,03,26,05,46,0.00
2016,03,26,05,47,0.00
2016,03,26,05,48,0.00
2016,03,26,05,49,0.00
2016,03,26,05,50,0.00
2016,03,26,05,51,0.00
2016,03,26,05,52,0.00
2016,03,26,05,53,0.00
2016,03,26,05,54,0.00
2016,03,26,05,55,0.00
2016,03,26,05,56,0.00
2016,03,26,05,57,0.00
2016,03,26,05,58,0.00
2016,03,26,05,59,0.00
2016,03,26,06,00,0.00
2016,03,26,06,01,0.00
2016,03,26,06,02,0.00
2016,03,26,06,03,0.00
2016,03,26,06,04,0.00
2016,03,26,06,05,0.00
2016,03,26,06,06,0.00
2016,03,26,06,07,0.00
2016,03,26,06,08,0.00
2016,03,26,06,09,0.00
2016,03,26,06,10,0.00
2016,03,26,06,11,0.00
2016,03,26,06,12,0.00
2016,03,26,06,13,0.00
2016,03,26,06,14,0.00
2016,03,26,06,15,0.00
2016,03,26,06,16,0.00
2016,03,26,06,17,0.00
2016,03,26,06,18,0.00
2016,03,26,06,19,0.00
2016,03,26,06,20,0.00
2016,03,26,06,21,0.00
2016,03,26,06,22,0.00
2016,03,26,06,23,0.00
2016,03,26,06,24,0.00
2016,03,26,06,25,0.00
2016,03,26,06,26,0.00
2016,03,26,06,27,0.00
2016,03,26,06,28,0.00
2016,03,26,06,29,0.00
2016,03,26,06,30,0.00
2016,03,26,06,31,0.00
2016,03,26,06,32,0.00
2016,03,26,06,33,0.00
2016,03,26,06,34,0.00
2016,03,26,06,35,0.00
2016,03,26,06,36,0.00
2016,03,26,06,37,0.00
2016,03,26,06,38,0.00
2016,03,26,06,39,0.00
2016,03,26,06,40,0.00
2016,03,26,06,41,0.00
2016,03,26,06,42,0.00
2016,03,26,06,43,0.00
2016,03,26,06,44,0.00
2016,03,26,06,45,0.00
2016,03,26,06,46,0.00
2016,03,26,06,47,0.00
2016,03,26,06,48,0.00
2016,03,26,06,49,0.00
2016,03,26,06,50,0.00
2016,03,26,06,51,0.00
2016,03,26,06,52,0.00
2016,03,26,06,53,0.00
2016,03,26,06,54,0.00
2016,03,26,06,55,0.00
2016,03,26,06,56,0.00
2016,03,26,06,57,0.00
2016,03,26,06,58,0.00
2016,03,26,06,59,0.00
2016,03,26,07,00,0.00
2016,03,26,07,01,0.00
2016,03,26,07,02,0.00
2016,03,26,07,03,0.00
2016,03,26,07,04,0.00
2016,03,26,07,05,0.00
2016,03,26,07,06,0.00
2016,03,26,07,07,0.00
2016,03,26,07,08,0.00
2016,03,26,07,09,0.00
2016,03,26,07,10,2.90
2016,03,26,07,11,5.00
2016,03,26,07,12,5.00
2016,03,26,07,13,5.00
2016,03,26,07,14,5.00
2016,03,26,07,15,5.70
2016,03,26,07,16,7.00
2016,03,26,07,17,7.00
2016,03,26,07,18,8.40
2016,03,26,07,19,9.00
2016,03,26,07,20,9.20
2016,03,26,07,21,11.00
2016,03,26,07,22,11.00
2016,03,26,07,23,11.00
2016,03,26,07,24,11.60
2016,03,26,07,25,12.00
2016,03,26,07,26,12.00
2016,03,26,07,27,13.90
2016,03,26,07,28,14.50
2016,03,26,07,29,16.00
2016,03,26,07,30,16.00
2016,03,26,07,31,17.20
2016,03,26,07,32,18.00
2016,03,26,07,33,18.80
2016,03,26,07,34,19.20
2016,03,26,07,35,21.00
2016,03,26,07,36,21.70
2016,03,26,07,37,23.00
2016,03,26,07,38,23.00
2016,03,26,07,39,24.40
2016,03,26,07,40,25.00
2016,03,26,07,41,26.00
2016,03,26,07,42,26.00
2016,03,26,07,43,26.70
2016,03,26,07,44,28.00
2016,03,26,07,45,29.20
2016,03,26,07,46,30.00
2016,03,26,07,47,30.00
2016,03,26,07,48,30.00
2016,03,26,07,49,30.00
2016,03,26,07,50,30.00
2016,03,26,07,51,30.90
2016,03,26,07,52,32.00
2016,03,26,07,53,32.00
2016,03,26,07,54,32.90
2016,03,26,07,55,33.20
2016,03,26,07,56,35.40
2016,03,26,07,57,37.70
2016,03,26,07,58,39.50
2016,03,26,07,59,41.20
2016,03,26,08,00,43.40
2016,03,26,08,01,45.70
2016,03,26,08,02,46.00
2016,03,26,08,03,46.00
2016,03,26,08,04,46.40
2016,03,26,08,05,47.00
2016,03,26,08,06,48.20
2016,03,26,08,07,50.40
2016,03,26,08,08,53.60
2016,03,26,08,09,55.90
2016,03,26,08,10,56.40
2016,03,26,08,11,58.70
2016,03,26,08,12,61.00
2016,03,26,08,13,62.60
2016,03,26,08,14,64.40
2016,03,26,08,15,66.70
2016,03,26,08,16,69.00
2016,03,26,08,17,70.40
2016,03,26,08,18,73.40
2016,03,26,08,19,76.50
2016,03,26,08,20,79.30
2016,03,26,08,21,81.00
2016,03,26,08,22,83.60
2016,03,26,08,23,87.90
2016,03,26,08,24,88.50
2016,03,26,08,25,90.40
2016,03,26,08,26,91.90
2016,03,26,08,27,94.20
2016,03,26,08,28,95.00
2016,03,26,08,29,96.70
2016,03,26,08,30,96.80
2016,03,26,08,31,95.00
2016,03,26,08,32,94.30
2016,03,26,08,33,93.00
2016,03,26,08,34,93.00
2016,03,26,08,35,94.40
2016,03,26,08,36,96.70
2016,03,26,08,37,100.10
2016,03,26,08,38,102.00
2016,03,26,08,39,100.30
2016,03,26,08,40,96.10
2016,03,26,08,41,105.60
2016,03,26,08,42,98.50
2016,03,26,08,43,91.30
2016,03,26,08,44,91.20
2016,03,26,08,45,93.00
2016,03,26,08,46,92.30
2016,03,26,08,47,91.00
2016,03,26,08,48,91.00
2016,03,26,08,49,92.40
2016,03,26,08,50,93.00
2016,03,26,08,51,95.40
2016,03,26,08,52,100.80
2016,03,26,08,53,105.70
2016,03,26,08,54,113.20
2016,03,26,08,55,123.90
2016,03,26,08,56,134.50
2016,03,26,08,57,137.00
2016,03,26,08,58,189.10
2016,03,26,08,59,252.10
2016,03,26,09,00,290.20
2016,03,26,09,01,256.90
2016,03,26,09,02,219.60
2016,03,26,09,03,223.00
2016,03,26,09,04,182.40
2016,03,26,09,05,187.40
2016,03,26,09,06,305.00
2016,03,26,09,07,308.30
2016,03,26,09,08,308.50
2016,03,26,09,09,308.00
2016,03,26,09,10,311.60
2016,03,26,09,11,311.30
2016,03,26,09,12,309.30
2016,03,26,09,13,313.40
2016,03,26,09,14,312.90
2016,03,26,09,15,310.90
2016,03,26,09,16,313.00
2016,03,26,09,17,311.60
2016,03,26,09,18,318.70
2016,03,26,09,19,322.70
2016,03,26,09,20,328.20
2016,03,26,09,21,329.50
2016,03,26,09,22,341.40
2016,03,26,09,23,348.00
2016,03,26,09,24,352.20
2016,03,26,09,25,359.00
2016,03,26,09,26,366.30
2016,03,26,09,27,373.20
2016,03,26,09,28,381.80
2016,03,26,09,29,374.70
2016,03,26,09,30,322.70
2016,03,26,09,31,295.00
2016,03,26,09,32,295.00
2016,03,26,09,33,286.20
2016,03,26,09,34,271.00
2016,03,26,09,35,271.00
2016,03,26,09,36,300.40
2016,03,26,09,37,332.00
2016,03,26,09,38,389.20
2016,03,26,09,39,360.40
2016,03,26,09,40,390.90
2016,03,26,09,41,367.40
2016,03,26,09,42,310.10
2016,03,26,09,43,262.70
2016,03,26,09,44,248.00
2016,03,26,09,45,232.30
2016,03,26,09,46,229.00
2016,03,26,09,47,223.00
2016,03,26,09,48,222.40
2016,03,26,09,49,231.10
2016,03,26,09,50,245.50
2016,03,26,09,51,255.30
2016,03,26,09,52,259.20
2016,03,26,09,53,267.80
2016,03,26,09,54,253.00
2016,03,26,09,55,254.00
2016,03,26,09,56,256.30
2016,03,26,09,57,248.20
2016,03,26,09,58,243.60
2016,03,26,09,59,262.10
2016,03,26,10,00,276.80
2016,03,26,10,01,280.50
2016,03,26,10,02,273.00
2016,03,26,10,03,277.60
2016,03,26,10,04,334.40
2016,03,26,10,05,356.40
2016,03,26,10,06,326.70
2016,03,26,10,07,372.90
2016,03,26,10,08,316.90
2016,03,26,10,09,305.70
2016,03,26,10,10,300.10
2016,03,26,10,11,307.40
2016,03,26,10,12,311.30
2016,03,26,10,13,333.30
2016,03,26,10,14,341.00
2016,03,26,10,15,314.40
2016,03,26,10,16,331.30
2016,03,26,10,17,321.30
2016,03,26,10,18,315.70
2016,03,26,10,19,323.00
2016,03,26,10,20,311.20
2016,03,26,10,21,307.40
2016,03,26,10,22,306.80
2016,03,26,10,23,290.70
2016,03,26,10,24,302.10
2016,03,26,10,25,295.50
2016,03,26,10,26,282.20
2016,03,26,10,27,269.20
2016,03,26,10,28,322.60
2016,03,26,10,29,284.70
2016,03,26,10,30,298.00
2016,03,26,10,31,378.50
2016,03,26,10,32,427.00
2016,03,26,10,33,499.00
2016,03,26,10,34,557.50
2016,03,26,10,35,557.90
2016,03,26,10,36,554.80
2016,03,26,10,37,552.00
2016,03,26,10,38,552.00
2016,03,26,10,39,552.00
2016,03,26,10,40,555.00
2016,03,26,10,41,559.90
2016,03,26,10,42,562.70
2016,03,26,10,43,564.40
2016,03,26,10,44,568.40
2016,03,26,10,45,571.00
2016,03,26,10,46,573.00
2016,03,26,10,47,574.20
2016,03,26,10,48,576.40
2016,03,26,10,49,579.60
2016,03,26,10,50,578.80
2016,03,26,10,51,586.70
2016,03,26,10,52,594.10
2016,03,26,10,53,594.60
2016,03,26,10,54,598.30
2016,03,26,10,55,606.60
2016,03,26,10,56,614.00
2016,03,26,10,57,608.80
2016,03,26,10,58,614.00
2016,03,26,10,59,617.00
2016,03,26,11,00,619.30
2016,03,26,11,01,628.40
2016,03,26,11,02,649.70
2016,03,26,11,03,658.60
2016,03,26,11,04,654.00
2016,03,26,11,05,626.00
2016,03,26,11,06,466.30
2016,03,26,11,07,163.00
2016,03,26,11,08,167.90
2016,03,26,11,09,179.70
2016,03,26,11,10,201.10
2016,03,26,11,11,237.50
2016,03,26,11,12,271.80
2016,03,26,11,13,228.30
2016,03,26,11,14,228.00
2016,03,26,11,15,230.80
2016,03,26,11,16,235.60
2016,03,26,11,17,242.20
2016,03,26,11,18,253.10
2016,03,26,11,19,270.60
2016,03,26,11,20,270.00
2016,03,26,11,21,272.00
2016,03,26,11,22,277.50
2016,03,26,11,23,279.60
2016,03,26,11,24,276.40
2016,03,26,11,25,278.70
2016,03,26,11,26,287.90
2016,03,26,11,27,329.70
2016,03,26,11,28,407.90
2016,03,26,11,29,422.50
2016,03,26,11,30,413.00
2016,03,26,11,31,413.00
2016,03,26,11,32,459.40
2016,03,26,11,33,845.60
2016,03,26,11,34,844.00
2016,03,26,11,35,844.00
2016,03,26,11,36,844.00
2016,03,26,11,37,844.00
2016,03,26,11,38,844.00
2016,03,26,11,39,333.20
2016,03,26,11,40,289.50
2016,03,26,11,41,292.50
2016,03,26,11,42,319.60
2016,03,26,11,43,366.80
2016,03,26,11,44,378.50
2016,03,26,11,45,339.80
2016,03,26,11,46,326.50
2016,03,26,11,47,318.30
2016,03,26,11,48,312.30
2016,03,26,11,49,311.00
2016,03,26,11,50,312.20
2016,03,26,11,51,311.60
2016,03,26,11,52,306.70
2016,03,26,11,53,299.00
2016,03,26,11,54,298.00
2016,03,26,11,55,303.50
2016,03,26,11,56,310.20
2016,03,26,11,57,317.10
2016,03,26,11,58,325.10
2016,03,26,11,59,336.50
2016,03,26,12,00,342.80
2016,03,26,12,01,339.10
2016,03,26,12,02,327.20
2016,03,26,12,03,308.80
2016,03,26,12,04,291.60
2016,03,26,12,05,287.80
2016,03,26,12,06,310.30
2016,03,26,12,07,351.30
2016,03,26,12,08,376.20
2016,03,26,12,09,380.50
2016,03,26,12,10,372.00
2016,03,26,12,11,360.00
2016,03,26,12,12,348.50
2016,03,26,12,13,341.70
2016,03,26,12,14,339.50
2016,03,26,12,15,343.40
2016,03,26,12,16,345.00
2016,03,26,12,17,342.10
2016,03,26,12,18,333.70
2016,03,26,12,19,329.30
2016,03,26,12,20,329.90
2016,03,26,12,21,333.40
2016,03,26,12,22,328.80
2016,03,26,12,23,321.80
2016,03,26,12,24,310.60
2016,03,26,12,25,298.10
2016,03,26,12,26,286.00
2016,03,26,12,27,272.70
2016,03,26,12,28,266.70
2016,03,26,12,29,285.00
2016,03,26,12,30,315.20
2016,03,26,12,31,329.00
2016,03,26,12,32,324.70
2016,03,26,12,33,315.60
2016,03,26,12,34,309.70
2016,03,26,12,35,308.00
2016,03,26,12,36,309.90
2016,03,26,12,37,322.20
2016,03,26,12,38,339.10
2016,03,26,12,39,345.60
2016,03,26,12,40,342.40
2016,03,26,12,41,333.60
2016,03,26,12,42,321.70
2016,03,26,12,43,316.50
2016,03,26,12,44,318.70
2016,03,26,12,45,320.90
2016,03,26,12,46,319.70
2016,03,26,12,47,315.80
2016,03,26,12,48,311.60
2016,03,26,12,49,303.30
2016,03,26,12,50,293.50
2016,03,26,12,51,286.30
2016,03,26,12,52,280.70
2016,03,26,12,53,274.50
2016,03,26,12,54,268.40
2016,03,26,12,55,267.00
2016,03,26,12,56,273.60
2016,03,26,12,57,290.60
2016,03,26,12,58,308.20
2016,03,26,12,59,324.80
2016,03,26,13,00,331.20
2016,03,26,13,01,330.60
2016,03,26,13,02,327.50
2016,03,26,13,03,323.00
2016,03,26,13,04,321.10
2016,03,26,13,05,315.60
2016,03,26,13,06,306.80
2016,03,26,13,07,299.10
2016,03,26,13,08,297.00
2016,03,26,13,09,300.40
2016,03,26,13,10,307.90
2016,03,26,13,11,308.00
2016,03,26,13,12,301.60
2016,03,26,13,13,292.70
2016,03,26,13,14,283.80
2016,03,26,13,15,279.60
2016,03,26,13,16,279.00
2016,03,26,13,17,279.00
2016,03,26,13,18,278.80
2016,03,26,13,19,276.60
2016,03,26,13,20,271.70
2016,03,26,13,21,266.10
2016,03,26,13,22,261.10
2016,03,26,13,23,260.00
2016,03,26,13,24,260.30
2016,03,26,13,25,264.70
2016,03,26,13,26,267.70
2016,03,26,13,27,268.00
2016,03,26,13,28,265.80
2016,03,26,13,29,262.80
2016,03,26,13,30,260.30
2016,03,26,13,31,264.60
2016,03,26,13,32,273.40
2016,03,26,13,33,285.60
2016,03,26,13,34,299.40
2016,03,26,13,35,307.80
2016,03,26,13,36,305.40
2016,03,26,13,37,298.20
2016,03,26,13,38,291.80
2016,03,26,13,39,288.00
2016,03,26,13,40,288.70
2016,03,26,13,41,293.40
2016,03,26,13,42,302.30
2016,03,26,13,43,313.10
2016,03,26,13,44,321.00
2016,03,26,13,45,317.40
2016,03,26,13,46,309.90
2016,03,26,13,47,305.30
2016,03,26,13,48,306.40
2016,03,26,13,49,317.10
2016,03,26,13,50,331.00
2016,03,26,13,51,343.10
2016,03,26,13,52,363.30
2016,03,26,13,53,383.40
2016,03,26,13,54,397.20
2016,03,26,13,55,406.70
2016,03,26,13,56,412.90
2016,03,26,13,57,420.10
2016,03,26,13,58,428.00
2016,03,26,13,59,428.40
2016,03,26,14,00,415.70
2016,03,26,14,01,394.90
2016,03,26,14,02,375.40
2016,03,26,14,03,350.90
2016,03,26,14,04,335.10
2016,03,26,14,05,327.90
2016,03,26,14,06,324.90
2016,03,26,14,07,322.00
2016,03,26,14,08,322.30
2016,03,26,14,09,323.90
2016,03,26,14,10,323.20
2016,03,26,14,11,312.00
2016,03,26,14,12,296.40
2016,03,26,14,13,282.90
2016,03,26,14,14,277.60
2016,03,26,14,15,277.00
2016,03,26,14,16,279.90
2016,03,26,14,17,282.20
2016,03,26,14,18,283.00
2016,03,26,14,19,286.40
2016,03,26,14,20,292.40
2016,03,26,14,21,297.80
2016,03,26,14,22,301.00
2016,03,26,14,23,298.10
2016,03,26,14,24,290.80
2016,03,26,14,25,279.30
2016,03,26,14,26,263.90
2016,03,26,14,27,246.80
2016,03,26,14,28,235.60
2016,03,26,14,29,229.70
2016,03,26,14,30,229.00
2016,03,26,14,31,229.60
2016,03,26,14,32,230.00
2016,03,26,14,33,230.00
2016,03,26,14,34,226.20
2016,03,26,14,35,218.10
2016,03,26,14,36,207.20
2016,03,26,14,37,195.40
2016,03,26,14,38,187.10
2016,03,26,14,39,183.60
2016,03,26,14,40,185.60
2016,03,26,14,41,188.00
2016,03,26,14,42,187.30
2016,03,26,14,43,182.50
2016,03,26,14,44,174.00
2016,03,26,14,45,164.90
2016,03,26,14,46,159.10
2016,03,26,14,47,156.30
2016,03,26,14,48,158.30
2016,03,26,14,49,162.60
2016,03,26,14,50,165.70
2016,03,26,14,51,167.00
2016,03,26,14,52,165.80
2016,03,26,14,53,162.80
2016,03,26,14,54,158.60
2016,03,26,14,55,154.70
2016,03,26,14,56,150.60
2016,03,26,14,57,148.70
2016,03,26,14,58,148.50
2016,03,26,14,59,150.20
2016,03,26,15,00,152.40
2016,03,26,15,01,155.60
2016,03,26,15,02,155.90
2016,03,26,15,03,153.70
2016,03,26,15,04,146.60
2016,03,26,15,05,138.60
2016,03,26,15,06,133.20
2016,03,26,15,07,132.00
2016,03,26,15,08,134.60
2016,03,26,15,09,141.30
2016,03,26,15,10,144.40
2016,03,26,15,11,144.60
2016,03,26,15,12,139.60
2016,03,26,15,13,135.20
2016,03,26,15,14,134.00
2016,03,26,15,15,136.60
2016,03,26,15,16,144.70
2016,03,26,15,17,152.90
2016,03,26,15,18,162.40
2016,03,26,15,19,168.90
2016,03,26,15,20,171.60
2016,03,26,15,21,172.00
2016,03,26,15,22,172.00
2016,03,26,15,23,170.80
2016,03,26,15,24,168.60
2016,03,26,15,25,166.30
2016,03,26,15,26,165.00
2016,03,26,15,27,165.00
2016,03,26,15,28,165.00
2016,03,26,15,29,165.00
2016,03,26,15,30,165.40
2016,03,26,15,31,170.20
2016,03,26,15,32,176.50
2016,03,26,15,33,183.20
2016,03,26,15,34,189.50
2016,03,26,15,35,194.20
2016,03,26,15,36,198.30
2016,03,26,15,37,202.10
2016,03,26,15,38,204.40
2016,03,26,15,39,206.00
2016,03,26,15,40,205.00
2016,03,26,15,41,201.50
2016,03,26,15,42,196.40
2016,03,26,15,43,190.70
2016,03,26,15,44,182.70
2016,03,26,15,45,177.00
2016,03,26,15,46,173.30
2016,03,26,15,47,171.50
2016,03,26,15,48,171.60
2016,03,26,15,49,174.90
2016,03,26,15,50,178.50
2016,03,26,15,51,181.10
2016,03,26,15,52,182.00
2016,03,26,15,53,177.90
2016,03,26,15,54,172.60
2016,03,26,15,55,165.40
2016,03,26,15,56,159.40
2016,03,26,15,57,153.90
2016,03,26,15,58,147.60
2016,03,26,15,59,141.40
2016,03,26,16,00,137.30
2016,03,26,16,01,132.10
2016,03,26,16,02,128.80
2016,03,26,16,03,127.30
2016,03,26,16,04,127.00
2016,03,26,16,05,127.10
2016,03,26,16,06,128.00
2016,03,26,16,07,128.70
2016,03,26,16,08,131.90
2016,03,26,16,09,135.80
2016,03,26,16,10,139.90
2016,03,26,16,11,143.60
2016,03,26,16,12,148.00
2016,03,26,16,13,149.40
2016,03,26,16,14,151.00
2016,03,26,16,15,150.10
2016,03,26,16,16,146.10
2016,03,26,16,17,140.40
2016,03,26,16,18,135.60
2016,03,26,16,19,134.90
2016,03,26,16,20,133.00
2016,03,26,16,21,129.30
2016,03,26,16,22,126.60
2016,03,26,16,23,123.80
2016,03,26,16,24,123.00
2016,03,26,16,25,124.70
2016,03,26,16,26,126.90
2016,03,26,16,27,126.60
2016,03,26,16,28,125.00
2016,03,26,16,29,125.90
2016,03,26,16,30,127.60
2016,03,26,16,31,132.30
2016,03,26,16,32,134.90
2016,03,26,16,33,136.70
2016,03,26,16,34,134.30
2016,03,26,16,35,130.20
2016,03,26,16,36,126.00
2016,03,26,16,37,122.60
2016,03,26,16,38,122.40
2016,03,26,16,39,123.00
2016,03,26,16,40,123.00
2016,03,26,16,41,122.30
2016,03,26,16,42,119.30
2016,03,26,16,43,117.10
2016,03,26,16,44,114.80
2016,03,26,16,45,113.30
2016,03,26,16,46,111.30
2016,03,26,16,47,106.60
2016,03,26,16,48,100.30
2016,03,26,16,49,93.60
2016,03,26,16,50,89.70
2016,03,26,16,51,86.80
2016,03,26,16,52,86.00
2016,03,26,16,53,87.70
2016,03,26,16,54,90.20
2016,03,26,16,55,93.40
2016,03,26,16,56,95.70
2016,03,26,16,57,97.00
2016,03,26,16,58,95.80
2016,03,26,16,59,95.00
2016,03,26,17,00,91.60
2016,03,26,17,01,85.70
2016,03,26,17,02,81.80
2016,03,26,17,03,75.30
2016,03,26,17,04,70.60
2016,03,26,17,05,65.40
2016,03,26,17,06,60.80
2016,03,26,17,07,58.30
2016,03,26,17,08,56.10
2016,03,26,17,09,55.50
2016,03,26,17,10,54.00
2016,03,26,17,11,54.00
2016,03,26,17,12,53.40
2016,03,26,17,13,53.00
2016,03,26,17,14,53.00
2016,03,26,17,15,53.00
2016,03,26,17,16,53.20
2016,03,26,17,17,54.70